Back to catalog

SL-12 DEB

LostHEO
NORAD 29459·DEBRIS·🇷🇺 Russia

Launched May 31, 1989 from Baikonur Cosmodrome

Loading…

Next Passes (next 24 hours)

TLE

StaleSource: Space-Track

Epoch: Feb 21, 2022, 05:57 UTC

1 29459U 89039DD  22052.24851703  .00111145  00000-0  11259+0 0  9999
2 29459  67.6766 119.6671 3459645 341.8722   8.3787  7.99917047393464

Track SL-12 DEB in real time with AllMySat

Download on the App Store